Hourly Data Report for June 19, 2021

SANIRAJAK AIRPORT
NUNAVUT
Current Station Operator: NAVCAN

68°46'33.000" N
81°14'33.000" W
9.10 m
2402354
71293
YUX

Download Data

Hourly Data (June 2021)
Hourly Data Report for June 19, 2021
TIME
LST
Temp Definition
°C
Dew Point Definition
°C
Rel Hum Definition
%
Precip. Amount Definition
mm

Wind Dir Definition
10's deg

Wind Spd Definition
km/h
Visibility Definition
km
Stn Press Definition
kPa
Hmdx Definition


Wind Chill Definition


Weather Definition


00:00 0.5 -0.1 96 0.0 9 17 16.1 100.34     LegendNANA
01:00 0.4 0.1 98 0.0 8 17 16.1 100.37     LegendNANA
02:00 0.7 0.3 97 0.0 9 13 16.1 100.40     LegendNANA
03:00 0.4 0.0 97 0.0 8 8 16.1 100.40     LegendNANA
04:00 0.8 0.4 97 0.0 3 8 16.1 100.41     LegendNANA
05:00 1.0 0.3 95 0.0 2 13 16.1 100.41     LegendNANA
06:00 0.9 0.3 96 0.0 7 11 16.1 100.42     LegendNANA
07:00 1.1 0.4 95 0.0 8 9 16.1 100.42     LegendNANA
08:00 1.5 0.0 90 0.0 9 13 16.1 100.45     LegendNANA
09:00 2.1 0.3 88 0.0 7 11 16.1 100.45     LegendNANA
10:00 2.1 0.2 87 0.0 6 13 16.1 100.47     LegendNANA
11:00 2.3 0.3 86 0.0 5 18 16.1 100.47     LegendNANA
12:00 2.2 0.1 86 0.0 5 18 16.1 100.46     LegendNANA
13:00 2.5 -0.1 83 0.0 5 21 16.1 100.47     LegendNANA
14:00 2.3 0.0 85 0.0 5 18 16.1 100.49     LegendNANA
15:00 2.3 -0.1 84 0.0 5 21 16.1 100.53     LegendNANA
16:00 2.0 0.1 87 0.0 6 18 16.1 100.53     LegendNANA
17:00 1.9 0.1 88 0.0 5 15 16.1 100.55     LegendNANA
18:00 1.6 0.0 89 0.0 5 17 16.1 100.56     LegendNANA
19:00 1.6 0.0 89 0.0 4 17 16.1 100.56     LegendNANA
20:00 1.4 -0.2 89 0.0 5 18 16.1 100.57     LegendNANA
21:00 0.8 -0.2 93 0.0 2 15 16.1 100.59     LegendNANA
22:00 0.9 -0.1 93 0.0 5 15 16.1 100.57     LegendNANA
23:00 1.2 -0.1 91 0.0 3 17 16.1 100.55     LegendNANA

Notes on Data Quality.

Legend

  • E = Estimated
  • M = Missing
  • NA = Not Available*
  • [empty] = Indicates an unobserved value
Date modified: